| time (UTC) | temp F | wind direction | speed knots | gust knots | rain 1hr in | rain 24hr in | rain mn in | humidity % | barometer mb |
| 20260506200040 | 58 | 189 | 0.9 | 5.2 | 0.00 | 0.42 | 0.42 | 93 | 1004.2 |
| 20260506194540 | 58 | 176 | 0.9 | 4.3 | 0.00 | 0.42 | 0.42 | 93 | 1004.1 |
| 20260506193043 | 58 | 238 | 0.9 | 7.0 | 0.00 | 0.42 | 0.42 | 93 | 1004.3 |
| 20260506191537 | 58 | 150 | 1.7 | 7.0 | 0.01 | 0.42 | 0.42 | 93 | 1004.4 |
| 20260506190035 | 58 | 148 | 1.7 | 4.3 | 0.01 | 0.42 | 0.42 | 93 | 1004.5 |
| 20260506184543 | 58 | 134 | 1.7 | 6.1 | 0.02 | 0.42 | 0.42 | 93 | 1004.7 |
| 20260506183033 | 58 | 143 | 0.9 | 6.1 | 0.04 | 0.42 | 0.42 | 93 | 1004.7 |
| 20260506181540 | 58 | 146 | 1.7 | 7.0 | 0.05 | 0.41 | 0.41 | 93 | 1004.8 |
| 20260506180033 | 58 | 139 | 1.7 | 7.8 | 0.06 | 0.41 | 0.41 | 93 | 1004.9 |
| 20260506174536 | 57 | 231 | 2.6 | 6.1 | 0.06 | 0.40 | 0.40 | 93 | 1004.8 |
| 20260506173031 | 57 | 156 | 2.6 | 7.0 | 0.04 | 0.38 | 0.38 | 93 | 1004.9 |
| 20260506171534 | 57 | 171 | 2.6 | 7.8 | 0.03 | 0.36 | 0.36 | 92 | 1004.9 |
| 20260506170030 | 57 | 138 | 3.5 | 7.8 | 0.04 | 0.35 | 0.35 | 92 | 1004.8 |
| 20260506164543 | 57 | 134 | 5.2 | 9.6 | 0.04 | 0.34 | 0.34 | 92 | 1004.8 |
| 20260506163027 | 57 | 126 | 5.2 | 9.6 | 0.08 | 0.34 | 0.34 | 93 | 1004.8 |
| 20260506161524 | 57 | 141 | 3.5 | 10.4 | 0.12 | 0.33 | 0.33 | 92 | 1004.8 |
| 20260506160050 | 57 | 130 | 3.5 | 7.0 | 0.11 | 0.31 | 0.31 | 92 | 1004.8 |
| 20260506154503 | 57 | 150 | 5.2 | 7.8 | 0.11 | 0.28 | 0.28 | 92 | 1005.0 |
| 20260506153056 | 57 | 141 | 3.5 | 12.2 | 0.10 | 0.26 | 0.26 | 92 | 1005.2 |
| 20260506151524 | 58 | 190 | 2.6 | 7.8 | 0.07 | 0.21 | 0.21 | 91 | 1005.5 |
| 20260506150024 | 58 | 112 | 1.7 | 7.8 | 0.06 | 0.19 | 0.19 | 92 | 1005.0 |
| 20260506144525 | 58 | 157 | 3.5 | 8.7 | 0.08 | 0.18 | 0.18 | 91 | 1005.0 |
| 20260506143019 | 57 | 217 | 2.6 | 7.0 | 0.08 | 0.16 | 0.16 | 91 | 1005.3 |
| 20260506141526 | 57 | 168 | 2.6 | 7.8 | 0.08 | 0.14 | 0.14 | 91 | 1005.4 |
| 20260506140015 | 58 | 182 | 1.7 | 6.1 | 0.08 | 0.12 | 0.12 | 91 | 1005.6 |
| 20260506134515 | 58 | 184 | 2.6 | 5.2 | 0.07 | 0.10 | 0.10 | 90 | 1005.9 |
| 20260506133014 | 58 | 136 | 2.6 | 6.1 | 0.07 | 0.08 | 0.08 | 90 | 1006.0 |
| 20260506131513 | 58 | 156 | 1.7 | 6.1 | 0.05 | 0.06 | 0.06 | 88 | 1006.1 |
| 20260506130009 | 58 | 171 | 2.6 | 6.1 | 0.03 | 0.04 | 0.04 | 87 | 1006.1 |
| 20260506124506 | 59 | 135 | 2.6 | 7.0 | 0.01 | 0.02 | 0.02 | 85 | 1006.0 |
| 20260506123012 | 59 | 134 | 2.6 | 10.4 | 0.00 | 0.01 | 0.01 | 84 | 1005.9 |
| 20260506121510 | 59 | 166 | 2.6 | 7.8 | 0.01 | 0.01 | 0.01 | 83 | 1005.8 |
| 20260506120011 | 59 | 203 | 3.5 | 9.6 | 0.01 | 0.01 | 0.01 | 83 | 1005.7 |
| 20260506114503 | 59 | 171 | 2.6 | 7.8 | 0.01 | 0.01 | 0.01 | 83 | 1005.8 |
| 20260506113100 | 60 | 200 | 3.5 | 7.8 | 0.01 | 0.01 | 0.01 | 80 | 1005.8 |
| 20260506111557 | 61 | 141 | 2.6 | 9.6 | 0.00 | 0.00 | 0.00 | 75 | 1005.8 |
| 20260506110107 | 61 | 198 | 3.5 | 9.6 | 0.00 | 0.00 | 0.00 | 73 | 1005.7 |
| 20260506104611 | 61 | 125 | 3.5 | 10.4 | 0.00 | 0.00 | 0.00 | 72 | 1005.4 |
| 20260506103051 | 61 | 161 | 2.6 | 5.2 | 0.00 | 0.00 | 0.00 | 70 | 1005.2 |
| 20260506101552 | 61 | 142 | 2.6 | 4.3 | 0.00 | 0.00 | 0.00 | 69 | 1005.3 |
| 20260506100058 | 62 | 153 | 2.6 | 7.0 | 0.00 | 0.00 | 0.00 | 68 | 1005.3 |
| 20260506094550 | 62 | 152 | 3.5 | 7.8 | 0.00 | 0.00 | 0.00 | 67 | 1005.6 |
| 20260506093045 | 62 | 159 | 2.6 | 7.0 | 0.00 | 0.00 | 0.00 | 67 | 1005.6 |
| 20260506091543 | 62 | 126 | 3.5 | 7.8 | 0.00 | 0.00 | 0.00 | 67 | 1005.6 |
| 20260506090043 | 62 | 141 | 3.5 | 9.6 | 0.00 | 0.00 | 0.00 | 66 | 1005.6 |
| 20260506084611 | 62 | 160 | 4.3 | 8.7 | 0.00 | 0.01 | 0.00 | 65 | 1005.6 |
| 20260506083040 | 62 | 152 | 4.3 | 9.6 | 0.00 | 0.01 | 0.00 | 64 | 1005.8 |
| 20260506081549 | 62 | 143 | 2.6 | 7.8 | 0.00 | 0.01 | 0.00 | 63 | 1005.8 |
| 20260506073030 | 63 | 163 | 1.7 | 6.1 | 0.00 | 0.01 | 0.00 | 61 | 1006.1 |
| 20260506071528 | 63 | 134 | 3.5 | 7.8 | 0.00 | 0.01 | 0.00 | 60 | 1006.2 |
| 20260506061520 | 64 | 142 | 2.6 | 9.6 | 0.00 | 0.01 | 0.00 | 56 | 1006.5 |
| 20260506044508 | 64 | 118 | 4.3 | 9.6 | 0.00 | 0.01 | 0.00 | 54 | 1007.2 |
| 20260506043006 | 64 | 155 | 3.5 | 7.8 | 0.00 | 0.01 | 0.00 | 54 | 1007.3 |
| 20260506041505 | 65 | 148 | 3.5 | 7.8 | 0.00 | 0.01 | 0.00 | 53 | 1007.3 |
| 20260506040001 | 65 | 145 | 2.6 | 7.0 | 0.00 | 0.01 | 0.00 | 52 | 1007.4 |
| 20260506034600 | 65 | 148 | 3.5 | 7.8 | 0.00 | 0.01 | 0.01 | 52 | 1007.4 |
| 20260506033101 | 65 | 138 | 3.5 | 8.7 | 0.00 | 0.01 | 0.01 | 51 | 1007.3 |
| 20260506031700 | 66 | 146 | 1.7 | 6.1 | 0.00 | 0.01 | 0.01 | 51 | 1007.3 |
| 20260506030059 | 66 | 145 | 2.6 | 7.0 | 0.00 | 0.01 | 0.01 | 50 | 1007.3 |
| 20260506024600 | 67 | 126 | 4.3 | 8.7 | 0.00 | 0.01 | 0.01 | 48 | 1007.3 |
| 20260506023108 | 68 | 152 | 2.6 | 6.1 | 0.00 | 0.01 | 0.01 | 46 | 1007.4 |
| 20260506021617 | 69 | 161 | 3.5 | 10.4 | 0.00 | 0.01 | 0.01 | 45 | 1007.5 |
| 20260506020056 | 69 | 200 | 4.3 | 10.4 | 0.00 | 0.01 | 0.01 | 45 | 1007.4 |
| 20260506014556 | 70 | 140 | 3.5 | 8.7 | 0.00 | 0.01 | 0.01 | 44 | 1007.4 |
| 20260506013108 | 70 | 178 | 5.2 | 8.7 | 0.00 | 0.01 | 0.01 | 43 | 1007.3 |
| 20260506011615 | 70 | 171 | 2.6 | 7.8 | 0.00 | 0.01 | 0.01 | 44 | 1007.1 |
| 20260506010058 | 71 | 137 | 3.5 | 9.6 | 0.00 | 0.01 | 0.01 | 43 | 1006.8 |
| 20260506004554 | 71 | 142 | 5.2 | 12.2 | 0.00 | 0.01 | 0.01 | 43 | 1006.6 |
| 20260506003056 | 71 | 163 | 2.6 | 8.7 | 0.00 | 0.01 | 0.01 | 42 | 1006.6 |
| 20260506001556 | 72 | 200 | 5.2 | 8.7 | 0.00 | 0.01 | 0.01 | 42 | 1006.5 |
| 20260506000053 | 72 | 158 | 4.3 | 7.8 | 0.00 | 0.01 | 0.01 | 41 | 1006.3 |
| 20260505234552 | 73 | 134 | 3.5 | 7.8 | 0.00 | 0.01 | 0.01 | 39 | 1006.3 |
| 20260505233051 | 73 | 177 | 3.5 | 7.8 | 0.00 | 0.01 | 0.01 | 37 | 1006.2 |
| 20260505231605 | 73 | 160 | 2.6 | 8.7 | 0.00 | 0.01 | 0.01 | 37 | 1006.2 |
| 20260505230049 | 73 | 132 | 3.5 | 7.8 | 0.00 | 0.01 | 0.01 | 38 | 1006.1 |
| 20260505224548 | 73 | 196 | 2.6 | 12.2 | 0.00 | 0.01 | 0.01 | 37 | 1006.1 |
| 20260505223048 | 73 | 150 | 4.3 | 10.4 | 0.00 | 0.01 | 0.01 | 37 | 1006.0 |
| 20260505221547 | 74 | 123 | 3.5 | 12.2 | 0.00 | 0.01 | 0.01 | 37 | 1006.0 |
| 20260505220051 | 74 | 145 | 5.2 | 11.3 | 0.00 | 0.01 | 0.01 | 36 | 1005.9 |
| 20260505214554 | 74 | 149 | 4.3 | 14.8 | 0.00 | 0.01 | 0.01 | 36 | 1005.8 |
| 20260505213044 | 74 | 159 | 6.1 | 13.0 | 0.00 | 0.01 | 0.01 | 35 | 1005.8 |
| 20260505211543 | 75 | 152 | 4.3 | 16.5 | 0.00 | 0.01 | 0.01 | 33 | 1005.7 |
| 20260505210044 | 76 | 133 | 7.0 | 13.9 | 0.00 | 0.01 | 0.01 | 33 | 1005.6 |
| 20260505204539 | 76 | 146 | 6.1 | 17.4 | 0.00 | 0.01 | 0.01 | 33 | 1005.4 |
| 20260505203054 | 77 | 166 | 7.0 | 13.9 | 0.00 | 0.01 | 0.01 | 32 | 1005.6 |
| 20260505201543 | 78 | 155 | 6.1 | 16.5 | 0.00 | 0.01 | 0.01 | 32 | 1005.4 |